[[{"header":{"parameterUnit":"m.s-1","parameterCategory":1,"la1":30.2991,"la2":30.254,"lo1":-89.0895,"lo2":-89.0444,"dy":0.0017,"dx":0.0017,"nx":28,"ny":28,"refTime":"2023-11-02T09:00:00:Z","depth":0,"parameterNumber":2,"parameterNumberName":"U-component_of_WINDS"},"data":[0,0,0,0,0,0,0,0,0,0,0,0,0,0,0,0,0,0,0,0,0,0,0,0,0,0,0,0,0,0,0,0,0,0,0,0,0,0,0,0,0,0,0,0,0,0,0,0,0,0,0,0,0,0,0,0,0,0,-3.1535,-3.1535,0,-3.1507,-3.1506,-3.1506,-3.1447,-3.1446,-3.1444,-3.1443,-3.1416,-3.1417,-3.1417,0,0,0,0,0,0,0,0,0,0,0,0,0,-3.1541,-3.1541,-3.1535,-3.1535,-3.1535,-3.1507,-3.1506,-3.1506,-3.1447,-3.1446,-3.1444,-3.1443,-3.1416,-3.1417,-3.1417,0,0,0,0,0,0,0,0,0,0,0,0,0,-3.1528,-3.1541,-3.1535,-3.1502,-3.1498,-3.1507,-3.1506,-3.1506,-3.1447,-3.1446,-3.1444,-3.1442,-3.1416,-3.1416,-3.1417,-3.1456,0,0,-3.1419,-3.1419,0,0,0,0,0,0,0,0,-3.1529,-3.1528,-3.1507,-3.1504,-3.15,-3.1478,-3.1498,-3.1489,-3.1448,-3.1467,-3.1443,-3.1441,-3.1438,-3.1437,-3.1436,-3.1455,-3.1454,-3.1419,-3.1419,-3.1419,-3.142,0,0,0,0,0,0,0,-3.153,-3.1529,-3.1524,-3.1507,-3.1503,-3.1489,-3.1485,-3.1496,-3.1463,-3.1465,-3.1461,-3.1458,-3.1436,-3.1435,-3.1435,-3.1454,-3.1419,-3.1419,-3.142,-3.142,-3.1505,-3.1507,0,0,0,0,0,0,-3.1535,-3.153,-3.1525,-3.1523,-3.151,-3.149,-3.1486,-3.1487,-3.1463,-3.1457,-3.146,-3.1455,-3.1435,-3.1434,-3.1433,-3.1479,-3.1419,-3.142,-3.142,-3.1503,-3.1505,-3.1508,0,0,0,0,0,0,-3.1536,-3.1535,-3.1526,-3.1525,-3.1523,-3.1492,-3.1494,-3.1488,-3.1487,-3.1459,-3.1453,-3.1465,-3.1434,-3.1433,-3.1451,-3.1477,-3.142,-3.1421,-3.1501,-3.1504,-3.1506,-3.1569,0,0,0,0,0,0,-3.1536,-3.1536,-3.155,-3.1526,-3.1523,-3.1544,-3.1496,-3.1488,-3.1488,-3.1482,-3.1462,-3.1457,-3.1432,-3.1451,-3.1452,-3.1477,-3.1421,-3.1498,-3.1502,-3.1506,-3.1565,-3.1574,-3.1582,0,0,0,0,0,-3.1536,-3.1569,-3.1551,-3.1551,-3.154,-3.1545,-3.1544,-3.1515,-3.149,-3.1504,-3.1486,-3.1457,-3.1474,-3.1453,-3.1454,-3.1479,-3.1497,-3.1501,-3.1505,-3.1561,-3.1572,-3.1582,0,0,0,0,0,0,-3.1597,-3.1565,-3.1545,-3.157,-3.1561,-3.1535,-3.1552,-3.1527,-3.1525,-3.152,-3.1484,-3.148,-3.1504,-3.1493,-3.1471,-3.1517,-3.1481,-3.1485,-3.1523,-3.1533,-3.1541,-3.1544,-3.1422,0,0,0,0,0,-3.1613,-3.162,-3.1591,-3.1617,-3.1613,-3.1584,-3.1585,-3.1563,-3.1552,-3.1548,-3.1532,-3.1523,-3.1526,-3.1529,-3.153,-3.1563,-3.1558,-3.1581,-3.1589,-3.1596,-3.1601,-3.1619,-3.1629,-3.1522,-3.1522,-3.1522,0,0,-3.1647,-3.163,-3.1637,-3.1629,-3.1619,-3.1627,-3.1581,-3.1591,-3.1597,-3.155,-3.1566,-3.1554,-3.1542,-3.1568,-3.1579,-3.156,-3.163,-3.1602,-3.1608,-3.1609,-3.1624,-3.1634,-3.1643,-3.1525,-3.1524,-3.1524,0,0,-3.1713,-3.1701,-3.1721,-3.1712,-3.1697,-3.1678,-3.1683,-3.1661,-3.1651,-3.1667,-3.1632,-3.1639,-3.1645,-3.1638,-3.1635,-3.1699,-3.1673,-3.1701,-3.1746,-3.1763,-3.1772,-3.1779,-3.1803,-3.1812,-3.1705,-3.1706,-3.1706,0,-3.1757,-3.1767,-3.1734,-3.1747,-3.1745,-3.1702,-3.1723,-3.1716,-3.1703,-3.1704,-3.1682,-3.169,-3.1678,-3.1703,-3.1719,-3.1717,-3.1723,-3.1703,-3.1773,-3.178,-3.1786,-3.1809,-3.1818,-3.1709,-3.1709,-3.1708,-3.1708,0,-3.1823,-3.183,-3.1848,-3.1837,-3.1837,-3.1853,-3.1824,-3.1828,-3.1807,-3.179,-3.1807,-3.1792,-3.179,-3.1794,-3.1773,-3.1816,-3.1805,-3.1779,-3.1742,-3.1801,-3.1821,-3.1829,-3.1714,-3.1713,-3.1712,-3.1711,0,0,-3.1926,-3.1896,-3.1903,-3.1898,-3.1879,-3.1885,-3.19,-3.1898,-3.1902,-3.1895,-3.1908,-3.1914,-3.189,-3.1887,-3.1865,-3.1881,-3.1934,-3.1853,-3.1852,-3.1869,-3.1981,-3.2002,-3.2012,-3.1916,-3.1918,-3.1919,-3.1983,0,-3.1988,-3.2012,-3.1983,-3.2013,-3.2021,-3.1981,-3.1994,-3.1985,-3.1969,-3.1974,-3.1957,-3.1963,-3.193,-3.1928,-3.1941,-3.1925,-3.1956,-3.1919,-3.1929,-3.1929,-3.1934,-3.2023,-3.2044,-3.2105,-3.1991,-3.1992,-3.1993,0,-3.2064,-3.206,-3.2091,-3.2071,-3.2073,-3.2085,-3.2081,-3.2086,-3.2075,-3.2063,-3.206,-3.2034,-3.2048,-3.2012,-3.2032,-3.2008,-3.201,-3.2003,-3.2004,-3.2005,-3.1965,-3.2027,-3.2124,-3.2134,-3.2005,-3.2004,-3.2003,0,-3.2137,-3.214,-3.2159,-3.2155,-3.2132,-3.2142,-3.2133,-3.212,-3.2121,-3.2118,-3.2118,-3.2117,-3.2116,-3.2117,-3.2091,-3.2067,-3.2115,-3.2077,-3.2107,-3.2107,-3.2119,-3.2119,-3.2219,-3.2119,-3.2119,-3.2119,-3.2119,0,-3.221,-3.2231,-3.2191,-3.2203,-3.2226,-3.2193,-3.2217,-3.2204,-3.2193,-3.2202,-3.2167,-3.2177,-3.2142,-3.2149,-3.2129,-3.215,-3.2149,-3.2141,-3.2136,-3.2144,-3.2146,-3.2146,-3.2141,-3.2121,-3.2121,-3.212,-3.212,0,-3.2296,-3.227,-3.2289,-3.2265,-3.226,-3.2278,-3.2258,-3.2269,-3.2251,-3.2264,-3.2265,-3.2238,-3.2244,-3.2218,-3.2219,-3.2206,-3.2238,-3.2225,-3.2241,-3.2238,-3.2269,-3.2267,-3.2374,-3.2387,-3.2278,-3.2279,-3.228,0,-3.2345,-3.236,-3.2338,-3.2342,-3.2334,-3.2341,-3.2341,-3.231,-3.2312,-3.2301,-3.2313,-3.2316,-3.2317,-3.2328,-3.2309,-3.231,-3.2298,-3.2335,-3.2298,-3.2307,-3.23,-3.23,-3.2302,-3.2343,-3.2345,-3.2346,-3.2347,0,-3.2434,-3.2421,-3.2422,-3.242,-3.2422,-3.2419,-3.2413,-3.2418,-3.2385,-3.2389,-3.2394,-3.2395,-3.2397,-3.24,-3.2398,-3.2389,-3.2363,-3.2359,-3.2366,-3.2376,-3.2385,-3.2381,-3.2264,-3.2356,-3.2355,-3.2355,-3.2354,-3.2354,-3.2503,-3.2515,-3.2502,-3.2506,-3.2498,-3.2494,-3.2503,-3.2487,-3.2491,-3.2489,-3.2471,-3.248,-3.2469,-3.2463,-3.2457,-3.2465,-3.2447,-3.2458,-3.246,-3.2464,-3.247,-3.2383,-3.2464,-3.2464,-3.2464,-3.2463,-3.2463,0,-3.2592,-3.2582,-3.2585,-3.2579,-3.2582,-3.2556,-3.2549,-3.2553,-3.2562,-3.2554,-3.2555,-3.2562,-3.2566,-3.2547,-3.2548,-3.2558,-3.2546,-3.256,-3.2559,-3.2558,-3.2485,-3.2479,-3.2569,-3.2569,-3.2569,-3.2569,-3.2569,-3.2569,-3.2639,-3.2658,-3.2643,-3.2659,-3.2648,-3.2657,-3.2655,-3.2651,-3.2645,-3.2654,-3.2657,-3.2644,-3.2632,-3.2633,-3.2636,-3.263,-3.2633,-3.2651,-3.2641,-3.2573,-3.2563,-3.2553,-3.2547,-3.2651,-3.2651,-3.2714,-3.2715,-3.2715]},{"header":{"parameterUnit":"m.s-1","parameterCategory":1,"la1":30.2991,"la2":30.254,"lo1":-89.0895,"lo2":-89.0444,"dy":0.0017,"dx":0.0017,"nx":28,"ny":28,"refTime":"2023-11-02T09:00:00:Z","depth":0,"parameterNumber":3,"parameterNumberName":"V-component_of_WINDS"},"data":[0,0,0,0,0,0,0,0,0,0,0,0,0,0,0,0,0,0,0,0,0,0,0,0,0,0,0,0,0,0,0,0,0,0,0,0,0,0,0,0,0,0,0,0,0,0,0,0,0,0,0,0,0,0,0,0,0,0,-0.5177,-0.5177,0,-0.5174,-0.5174,-0.5174,-0.5123,-0.5122,-0.512,-0.5119,-0.5118,-0.5119,-0.512,0,0,0,0,0,0,0,0,0,0,0,0,0,-0.5141,-0.5142,-0.5177,-0.5177,-0.5177,-0.5174,-0.5174,-0.5174,-0.5123,-0.5122,-0.512,-0.5119,-0.5118,-0.5119,-0.5121,0,0,0,0,0,0,0,0,0,0,0,0,0,-0.5149,-0.5142,-0.5177,-0.5151,-0.5149,-0.5174,-0.5174,-0.5174,-0.5124,-0.5122,-0.512,-0.5118,-0.5117,-0.5119,-0.5121,-0.5171,0,0,-0.5126,-0.5127,0,0,0,0,0,0,0,0,-0.5149,-0.5151,-0.5155,-0.5153,-0.5151,-0.5147,-0.5161,-0.5173,-0.5124,-0.5133,-0.5119,-0.5117,-0.5129,-0.513,-0.5134,-0.5171,-0.5171,-0.5126,-0.5127,-0.5128,-0.5129,0,0,0,0,0,0,0,-0.5149,-0.5151,-0.5176,-0.5155,-0.5153,-0.5141,-0.514,-0.5163,-0.5143,-0.5132,-0.5129,-0.5129,-0.5128,-0.5132,-0.5134,-0.5171,-0.5126,-0.5128,-0.5129,-0.513,-0.5251,-0.5253,0,0,0,0,0,0,-0.5151,-0.5151,-0.5176,-0.5176,-0.5145,-0.5143,-0.5142,-0.515,-0.5142,-0.5139,-0.5131,-0.5127,-0.513,-0.5132,-0.5133,-0.5194,-0.5128,-0.513,-0.5131,-0.5249,-0.5252,-0.5254,0,0,0,0,0,0,-0.5151,-0.5154,-0.5176,-0.5162,-0.5164,-0.5146,-0.5156,-0.5151,-0.5156,-0.5141,-0.5137,-0.5139,-0.5129,-0.5131,-0.5162,-0.5193,-0.5131,-0.5132,-0.5247,-0.525,-0.5253,-0.5314,0,0,0,0,0,0,-0.515,-0.5154,-0.5173,-0.5163,-0.5165,-0.5205,-0.5157,-0.5153,-0.5159,-0.5153,-0.5148,-0.5145,-0.5127,-0.516,-0.5164,-0.5194,-0.5134,-0.5244,-0.5248,-0.5252,-0.531,-0.5319,-0.5328,0,0,0,0,0,-0.5149,-0.519,-0.5174,-0.5177,-0.5188,-0.5207,-0.5208,-0.5187,-0.5161,-0.518,-0.5171,-0.5145,-0.5188,-0.5164,-0.5168,-0.5199,-0.5242,-0.5247,-0.5252,-0.5306,-0.5317,-0.5327,0,0,0,0,0,0,-0.5204,-0.5188,-0.517,-0.5209,-0.521,-0.5198,-0.5222,-0.52,-0.5208,-0.5203,-0.5176,-0.5176,-0.5212,-0.5208,-0.5181,-0.5248,-0.5211,-0.5217,-0.525,-0.5261,-0.527,-0.5272,-0.5135,0,0,0,0,0,-0.5221,-0.5237,-0.5222,-0.5259,-0.526,-0.5241,-0.5248,-0.5232,-0.5231,-0.5232,-0.5224,-0.5226,-0.524,-0.525,-0.5262,-0.5307,-0.5307,-0.5331,-0.534,-0.5348,-0.5354,-0.538,-0.5392,-0.527,-0.527,-0.527,0,0,-0.5256,-0.5249,-0.5261,-0.527,-0.5268,-0.5287,-0.5241,-0.5263,-0.5277,-0.5235,-0.5265,-0.526,-0.5259,-0.5299,-0.5316,-0.5297,-0.5387,-0.5354,-0.536,-0.5362,-0.5387,-0.5398,-0.5408,-0.5273,-0.5273,-0.5272,0,0,-0.533,-0.5325,-0.5356,-0.5356,-0.5354,-0.5341,-0.5348,-0.534,-0.5335,-0.5364,-0.5334,-0.535,-0.5374,-0.5376,-0.538,-0.5454,-0.5432,-0.5459,-0.5507,-0.5533,-0.5543,-0.5551,-0.5581,-0.5591,-0.5464,-0.5465,-0.5465,0,-0.5375,-0.5401,-0.5375,-0.5399,-0.5404,-0.5366,-0.5398,-0.5398,-0.5401,-0.5406,-0.5384,-0.5414,-0.5411,-0.5452,-0.547,-0.5474,-0.5483,-0.5461,-0.5543,-0.5551,-0.5559,-0.5587,-0.5598,-0.5468,-0.5468,-0.5467,-0.5467,0,-0.5457,-0.5475,-0.55,-0.5504,-0.5511,-0.5539,-0.5518,-0.5529,-0.5512,-0.5501,-0.5533,-0.5527,-0.5539,-0.5546,-0.5529,-0.5585,-0.5574,-0.5548,-0.551,-0.5575,-0.56,-0.5611,-0.5473,-0.5472,-0.5471,-0.547,0,0,-0.5568,-0.5556,-0.5566,-0.5568,-0.5563,-0.5577,-0.5603,-0.5613,-0.5625,-0.5627,-0.565,-0.5671,-0.5647,-0.5652,-0.5634,-0.5657,-0.572,-0.5628,-0.5628,-0.5648,-0.5784,-0.5806,-0.5819,-0.5703,-0.5705,-0.5706,-0.5785,0,-0.5642,-0.5686,-0.5664,-0.5711,-0.5729,-0.5693,-0.5716,-0.5716,-0.5707,-0.5721,-0.5711,-0.5728,-0.5693,-0.5696,-0.5717,-0.5708,-0.5747,-0.5701,-0.5726,-0.5728,-0.5731,-0.5831,-0.5855,-0.5929,-0.5794,-0.5796,-0.5797,0,-0.5735,-0.5741,-0.5791,-0.5784,-0.579,-0.5811,-0.582,-0.5833,-0.5833,-0.5825,-0.583,-0.5807,-0.5833,-0.5794,-0.5831,-0.58,-0.5808,-0.5806,-0.5808,-0.5812,-0.5769,-0.5842,-0.5952,-0.5965,-0.5812,-0.5811,-0.581,0,-0.5815,-0.5836,-0.5869,-0.5871,-0.5862,-0.5878,-0.5876,-0.5873,-0.5881,-0.5888,-0.5893,-0.5903,-0.591,-0.5918,-0.59,-0.5872,-0.594,-0.5898,-0.5936,-0.5937,-0.5955,-0.5955,-0.6072,-0.5955,-0.5955,-0.5955,-0.5954,0,-0.5902,-0.5935,-0.5905,-0.5926,-0.5961,-0.5934,-0.5971,-0.5964,-0.5962,-0.5981,-0.5949,-0.5969,-0.5941,-0.5958,-0.5943,-0.5977,-0.5979,-0.5975,-0.5971,-0.598,-0.5981,-0.5988,-0.5983,-0.5958,-0.5957,-0.5956,-0.5956,0,-0.5999,-0.598,-0.6014,-0.6003,-0.6001,-0.6028,-0.6019,-0.6038,-0.6026,-0.6051,-0.6055,-0.6037,-0.6055,-0.6036,-0.6053,-0.6043,-0.609,-0.6077,-0.6091,-0.6088,-0.6129,-0.6127,-0.6257,-0.6274,-0.6143,-0.6144,-0.6145,0,-0.6058,-0.6082,-0.6073,-0.6084,-0.6083,-0.61,-0.6108,-0.6083,-0.6093,-0.6094,-0.6114,-0.6128,-0.614,-0.617,-0.6159,-0.6172,-0.6161,-0.6206,-0.6163,-0.6171,-0.6166,-0.6166,-0.6169,-0.6216,-0.6217,-0.6218,-0.6219,0,-0.6165,-0.6154,-0.6167,-0.6177,-0.6187,-0.6194,-0.6198,-0.6208,-0.6182,-0.6194,-0.6212,-0.6221,-0.6238,-0.6254,-0.6264,-0.6261,-0.6238,-0.6232,-0.6243,-0.6254,-0.6262,-0.6261,-0.6118,-0.6231,-0.6229,-0.6229,-0.6228,-0.6228,-0.6247,-0.6267,-0.6265,-0.628,-0.628,-0.6285,-0.6303,-0.6293,-0.6307,-0.6319,-0.6303,-0.6326,-0.6325,-0.6335,-0.6336,-0.6354,-0.6335,-0.6349,-0.6353,-0.6358,-0.6366,-0.6256,-0.6355,-0.6355,-0.6355,-0.6354,-0.6354,0,-0.6355,-0.6351,-0.6366,-0.6372,-0.6385,-0.6359,-0.6362,-0.6375,-0.6395,-0.6396,-0.6407,-0.6429,-0.6444,-0.6434,-0.6447,-0.6464,-0.6454,-0.6469,-0.6469,-0.647,-0.638,-0.6372,-0.6478,-0.6478,-0.6478,-0.6478,-0.6477,-0.6477,-0.6413,-0.6447,-0.6437,-0.6471,-0.6467,-0.6489,-0.6493,-0.6498,-0.6499,-0.6524,-0.6537,-0.6529,-0.6526,-0.6539,-0.6553,-0.6549,-0.6557,-0.6578,-0.6571,-0.6488,-0.6476,-0.6464,-0.6456,-0.6579,-0.6579,-0.6659,-0.666,-0.6661]}]]